Simultaneous Nadir Overpasses (SNOs) Predictions

Prediction of SNOs between GOES-16 and NOAA-19 Satellite Orbit:

Table of predicted SNOs for the next 14.0 days since TLE Epoch: 12/31/2021
Index Date Time (GOES-16) GOES-16 Lat,Lon NOAA-19 Lat,Lon Distance(km) Time Diff (sec)
1 01/03/2022 00:35:52 0.04, -75.17 -0.51, -77.66 283.54 80
2 01/04/2022 00:21:25 0.04, -75.17 0.14, -74.78 44.90 80
3 01/05/2022 00:09:37 0.04, -75.17 0.79, -71.90 373.53 80
4 01/07/2022 12:33:02 -0.03, -75.20 0.36, -76.80 183.81 80
5 01/08/2022 12:18:36 -0.03, -75.21 -0.34, -73.94 145.64 80
6 01/09/2022 12:06:48 -0.03, -75.22 -0.99, -71.06 475.22 80
7 01/11/2022 00:41:59 0.03, -75.23 -0.80, -78.84 412.35 80
8 01/12/2022 00:30:11 0.03, -75.24 -0.15, -75.96 82.43 80
9 01/13/2022 00:15:44 0.03, -75.25 0.51, -73.08 247.63 80
